Regional Weather Roundup
Issued by NWS

Home | Current Version | Previous Version | Text Only | Print | Product List | Glossary On
Versions: 1 2 3 4 5 6 7 8 9 10 11 12 13 14 15 16 17 18 19 20 21 22 23 24 25 26 27 28 29 30 31 32 33 34 35 36 37 38 39 40 41 42 43 44 45 46 47 48 49 50
874
ASUS45 KBOI 310010
RWRID

IDAHO REGIONAL WEATHER ROUNDUP
NATIONAL WEATHER SERVICE BOISE ID
600 PM MDT SAT JUL 30 2016

NOTE: "FAIR" INDICATES FEW OR NO CLOUDS BELOW 12000 FEET
WITH NO SIGNIFICANT WEATHER AND/OR OBSTRUCTIONS TO VISIBILITY

IDZ012-014-310100-
SOUTHWEST IDAHO


CITY           SKY/WX    TMP DP  RH WIND       PRES   REMARKS
BOISE          SUNNY     99  37  11 NW13G21   29.74F HX  94
CALDWELL       SUNNY    100  41  13 NW10      29.70F HX  95
MOUNTAIN HOME  SUNNY    100  43  14 N14G22    29.74F HX  96
$$

IDZ016-017-310100-
SOUTHCENTRAL IDAHO


CITY           SKY/WX    TMP DP  RH WIND       PRES   REMARKS
BURLEY         PTSUNNY   83  51  33 S17G26    29.86R
JEROME         MOSUNNY   91  51  25 S8        29.85S
TWIN FALLS     PTSUNNY   89  45  21 S15G25    29.87S
$$

IDZ019>023-310100-
SOUTHEAST IDAHO


CITY           SKY/WX    TMP DP  RH WIND       PRES   REMARKS
IDAHO FALLS    MOSUNNY   92  43  18 S14G24    29.88F
POCATELLO      MOSUNNY   95  40  14 SW12      29.87F HX  91
REXBURG        SUNNY     88  46  23 VRB3      29.89F
$$

IDZ006-010-011-018-031-032-310100-
CENTRAL IDAHO MOUNTAINS


CITY           SKY/WX    TMP DP  RH WIND       PRES   REMARKS
MCCALL         SUNNY     87  26  11 SW13G26   29.93S
HAILEY         MOSUNNY   88  46  23 W7        29.93F
STANLEY          N/A     80  33  18 CALM      30.04S
SALMON         SUNNY     91  39  16 SW13      29.72S
CHALLIS        SUNNY     93  29  10 SW21G29   29.85F
$$

IDZ002-004-006-007-026-310100-
NORTHERN IDAHO


CITY           SKY/WX    TMP DP  RH WIND       PRES   REMARKS
LEWISTON       SUNNY     98  33  10 NW13G24   29.67F HX  92
LOWELL           N/A     93  57  29 VRB3      29.66F HX  91
COEUR D`ALENE  SUNNY     90  41  18 NE20      29.69S
MULLAN PASS    SUNNY     71  38  29 VRB6G20   29.98F
$$




USA.gov is the U.S. government's official web portal to all federal, state and local government web resources and services.